Change the Weather History Date:

Sunday, September 16, 2012

  Actual Average Record
Temperature  
Mean Temperature 85 °F -  
Max Temperature 90 °F 84 °F 90 °F (2012)
Min Temperature 80 °F 76 °F 33 °F (1996)
Cooling Degree Days 20    
Growing Degree Days 35 (Base 50)    
Moisture  
Dew Point 76 °F    
Average Humidity 77    
Maximum Humidity 90    
Minimum Humidity 70    
Precipitation  
Precipitation 0.02 in - - ()
Sea Level Pressure  
Sea Level Pressure 29.92 in    
Wind  
Wind Speed 5 mph (East)    
Max Wind Speed 13 mph    
Max Gust Speed 17 mph    
Visibility 10 miles    
Events Rain    
Averages and records for this station are not official NWS values.
T = Trace of Precipitation, MM = Missing Value Source: NWS Daily Summary

Daily Weather History Graph

Daily Weather History Graph

Search for Another Location

Airport or City:

Trip Planner

Search our weather history database for the weather conditions in past years. The results will help you decide how hot, cold, wet, or windy it might be!

Date:

Astronomy

Sep. 16, 2012 Rise Set
Actual Time 6:05 AM ChST 6:17 PM ChST
Civil Twilight 5:44 AM ChST 6:39 PM ChST
Nautical Twilight 5:19 AM ChST 7:04 PM ChST
Astronomical Twilight 4:54 AM ChST 7:29 PM ChST
Moon 5:52 AM ChST (9/16) 6:13 PM ChST (9/16)
Length of Visible Light 12h 55m
Length of Day
12h 12m
Waning Crescent, 0% of the Moon is Illuminated
Sep 16
Waning Crescent
Sep 16
New
Sep 23
First Quarter
Sep 30
Full
Oct 8
Last Quarter

Hourly Weather History & Observations

Time (ChST) Temp. Heat Index Dew Point Humidity Pressure Visibility Wind Dir Wind Speed Gust Speed Precip Events Conditions
12:54 AM 81.0 °F 87.3 °F 75.9 °F 85% 29.92 in 10.0 mi ESE 3.5 mph - N/A   Mostly Cloudy
1:54 AM 81.0 °F 87.9 °F 77.0 °F 88% 29.90 in 10.0 mi Calm Calm - N/A   Overcast
2:54 AM 80.1 °F 85.8 °F 77.0 °F 90% 29.89 in 10.0 mi East 5.8 mph - N/A   Mostly Cloudy
3:54 AM 82.0 °F 89.4 °F 75.9 °F 82% 29.91 in 10.0 mi East 4.6 mph - N/A   Overcast
4:54 AM 82.0 °F 89.4 °F 75.9 °F 82% 29.91 in 10.0 mi ESE 4.6 mph - N/A   Mostly Cloudy
5:54 AM 81.0 °F 87.3 °F 75.9 °F 85% 29.93 in 10.0 mi ESE 3.5 mph - N/A   Mostly Cloudy
6:54 AM 82.0 °F 88.6 °F 75.0 °F 79% 29.94 in 10.0 mi East 5.8 mph - N/A   Overcast
7:54 AM 86.0 °F 96.9 °F 77.0 °F 74% 29.95 in 10.0 mi ESE 5.8 mph - N/A   Overcast
8:54 AM 87.1 °F 98.8 °F 77.0 °F 72% 29.96 in 10.0 mi SE 10.4 mph - N/A   Scattered Clouds
9:54 AM 84.9 °F 93.3 °F 75.0 °F 72% 29.96 in 9.0 mi South 9.2 mph - 0.00 in Rain Light Rain
10:54 AM 87.1 °F 98.8 °F 77.0 °F 72% 29.95 in 10.0 mi SSE 6.9 mph - 0.00 in   Mostly Cloudy
11:54 AM 89.1 °F 103.2 °F 78.1 °F 70% 29.94 in 10.0 mi SE 12.7 mph - N/A   Scattered Clouds
12:54 PM 90.0 °F 105.8 °F 79.0 °F 70% 29.92 in 10.0 mi SE 9.2 mph - N/A   Partly Cloudy
1:54 PM 84.9 °F 93.3 °F 75.0 °F 72% 29.90 in 10.0 mi South 11.5 mph 17.3 mph N/A   Mostly Cloudy
2:54 PM 84.0 °F 92.6 °F 75.9 °F 76% 29.88 in 10.0 mi Variable 5.8 mph - 0.02 in   Scattered Clouds
3:43 PM 84.2 °F 92.3 °F 75.2 °F 74% 29.81 in 0.8 mi Variable 4.6 mph - N/A   Haze
3:50 PM 84.2 °F 92.3 °F 75.2 °F 74% 29.81 in 10.0 mi Variable 4.6 mph - N/A   Scattered Clouds
3:54 PM 84.9 °F 93.3 °F 75.0 °F 72% 29.88 in 10.0 mi Variable 4.6 mph - N/A   Scattered Clouds
4:54 PM 84.9 °F 93.3 °F 75.0 °F 72% 29.90 in 10.0 mi Calm Calm - N/A   Partly Cloudy
5:54 PM 84.0 °F 91.9 °F 75.0 °F 74% 29.92 in 10.0 mi NNE 3.5 mph - N/A   Mostly Cloudy
6:54 PM 82.9 °F 90.2 °F 75.0 °F 77% 29.94 in 10.0 mi NE 4.6 mph - N/A   Overcast
7:54 PM 82.9 °F 90.8 °F 75.9 °F 79% 29.95 in 10.0 mi NE 4.6 mph - N/A   Overcast
8:54 PM 82.9 °F 90.8 °F 75.9 °F 79% 29.96 in 10.0 mi NE 4.6 mph - N/A   Overcast
9:54 PM 82.0 °F 88.6 °F 75.0 °F 79% 29.96 in 10.0 mi NE 4.6 mph - N/A   Mostly Cloudy
10:54 PM 82.0 °F 88.6 °F 75.0 °F 79% 29.97 in 10.0 mi NNE 3.5 mph - N/A   Mostly Cloudy
11:54 PM 82.0 °F 87.9 °F 73.9 °F 76% 29.95 in 10.0 mi North 4.6 mph - N/A   Overcast